Tracking 19247 objects as of 24-Sep-2018
HD Live streaming from Space Station
objects crossing your sky now

USA 179

Track USA 179 now!
USA 179 is classified as:


NORAD ID: 28384
Int'l Code: 2004-034A
Perigee: 1,165.4 km
Apogee: 39,204.2 km
Inclination: 63.2 °
Period: 717.8 minutes
Semi major axis: 26555 km
RCS: Unknown
Launch date: August 31, 2004
Source: United States (US)
Launch site: AIR FORCE EASTERN TEST RANGE (AFETR)
aabbcc
Your satellite tracking list
Your tracking list is empty




NASA's NSSDC Master Catalog

Two Line Element Set (TLE):
1 28384U 04034A   18220.80467123 0.00000000  00000-0  00000-0 0    03
2 28384  63.1745 250.5073 7162039 272.6696  14.7417  2.00615000    09
Source of the keplerian elements: McCants